• In Romania
  • List of Countries
  • For 7 days
  • Water Temperature
  • Satellite Maps
  • Weather Map
  • Weather Widgets
  • user-avatar
    Login

    Hourly Weather Lezhe

    Today, 29 March, Wednesday

    Time Temperature Precipitation Wind Pressure Humidity
    00:00 +8°C° 0 mm 3 mps 741 mmHg 69%
    01:00 +8°C° 0 mm 3 mps 740 mmHg 71%
    02:00 +8°C° 0 mm 3 mps 740 mmHg 71%
    03:00 +7°C° 0 mm 3 mps 740 mmHg 72%
    04:00 +7°C° 0 mm 3 mps 740 mmHg 73%
    05:00 +8°C° 0 mm 2 mps 741 mmHg 72%
    06:00 +9°C° 0 mm 2 mps 741 mmHg 70%
    07:00 +10°C° 0 mm 3 mps 741 mmHg 67%
    08:00 +12°C° 0 mm 3 mps 741 mmHg 60%
    09:00 +16°C° 0 mm 2 mps 741 mmHg 54%
    10:00 +18°C° 0 mm 2 mps 741 mmHg 47%
    11:00 +19°C° 0 mm 3 mps 741 mmHg 45%
    12:00 +19°C° 0 mm 3 mps 740 mmHg 42%
    13:00 +20°C° 0 mm 3 mps 740 mmHg 39%
    14:00 +20°C° 0 mm 3 mps 740 mmHg 41%
    15:00 +20°C° 0 mm 3 mps 739 mmHg 43%
    16:00 +19°C° 0 mm 3 mps 739 mmHg 45%
    17:00 +17°C° 0 mm 3 mps 739 mmHg 52%
    18:00 +14°C° 0 mm 3 mps 739 mmHg 59%
    19:00 +12°C° 0 mm 3 mps 739 mmHg 65%
    20:00 +11°C° 0 mm 3 mps 739 mmHg 66%
    21:00 +11°C° 0 mm 3 mps 740 mmHg 67%
    22:00 +10°C° 0 mm 3 mps 740 mmHg 68%
    23:00 +10°C° 0 mm 3 mps 740 mmHg 69%

    Tomorrow, 30 March, Thursday

    Time Temperature Precipitation Wind Pressure Humidity
    00:00 +10°C° 0 mm 3 mps 740 mmHg 71%
    01:00 +9°C° 0 mm 3 mps 741 mmHg 72%
    02:00 +9°C° 0 mm 3 mps 741 mmHg 74%
    03:00 +9°C° 0 mm 3 mps 741 mmHg 75%
    04:00 +9°C° 0 mm 3 mps 741 mmHg 76%
    05:00 +10°C° 0 mm 3 mps 741 mmHg 75%
    06:00 +11°C° 0 mm 3 mps 741 mmHg 73%
    07:00 +11°C° 0 mm 3 mps 741 mmHg 71%
    08:00 +14°C° 0 mm 3 mps 741 mmHg 64%
    09:00 +17°C° 0 mm 3 mps 741 mmHg 57%
    10:00 +19°C° 0 mm 3 mps 741 mmHg 50%
    11:00 +20°C° 0 mm 3 mps 741 mmHg 48%
    12:00 +20°C° 0 mm 3 mps 741 mmHg 47%
    13:00 +21°C° 0 mm 4 mps 741 mmHg 45%
    14:00 +21°C° 0 mm 4 mps 741 mmHg 47%
    15:00 +20°C° 0 mm 4 mps 740 mmHg 49%
    16:00 +20°C° 0 mm 4 mps 740 mmHg 51%
    17:00 +18°C° 0 mm 4 mps 740 mmHg 59%
    18:00 +16°C° 0 mm 3 mps 741 mmHg 67%
    19:00 +13°C° 0 mm 3 mps 741 mmHg 75%
    20:00 +13°C° 0 mm 3 mps 741 mmHg 77%
    21:00 +12°C° 0 mm 3 mps 742 mmHg 79%
    22:00 +12°C° 0 mm 3 mps 742 mmHg 81%
    23:00 +11°C° 0 mm 3 mps 742 mmHg 82%

    Day after tomorrow, 31 March, Friday

    Time Temperature Precipitation Wind Pressure Humidity
    00:00 +11°C° 0 mm 3 mps 742 mmHg 83%
    01:00 +11°C° 0 mm 3 mps 742 mmHg 84%
    02:00 +10°C° 0 mm 3 mps 742 mmHg 85%
    03:00 +10°C° 0 mm 3 mps 742 mmHg 85%
    04:00 +10°C° 0 mm 3 mps 742 mmHg 85%
    05:00 +10°C° 0 mm 3 mps 742 mmHg 82%
    06:00 +11°C° 0 mm 3 mps 742 mmHg 79%
    07:00 +12°C° 0 mm 3 mps 742 mmHg 76%
    08:00 +13°C° 0 mm 3 mps 742 mmHg 68%
    09:00 +16°C° 0 mm 3 mps 742 mmHg 60%
    10:00 +18°C° 0 mm 3 mps 742 mmHg 52%
    11:00 +19°C° 0 mm 3 mps 742 mmHg 50%
    12:00 +20°C° 0 mm 2 mps 741 mmHg 47%
    13:00 +21°C° 0 mm 2 mps 741 mmHg 45%
    14:00 +20°C° 0 mm 3 mps 741 mmHg 47%
    15:00 +20°C° 0 mm 3 mps 740 mmHg 49%
    16:00 +19°C° 0 mm 3 mps 740 mmHg 51%
    17:00 +17°C° 0 mm 3 mps 740 mmHg 58%
    18:00 +14°C° 0 mm 3 mps 740 mmHg 65%
    19:00 +13°C° 0 mm 2 mps 740 mmHg 72%
    20:00 +13°C° 0 mm 2 mps 741 mmHg 73%
    21:00 +13°C° 0 mm 2 mps 741 mmHg 73%
    22:00 +12°C° 0 mm 2 mps 741 mmHg 74%
    23:00 +12°C° 0 mm 2 mps 741 mmHg 74%

    1 April, Saturday

    Time Temperature Precipitation Wind Pressure Humidity
    00:00 +12°C° 0 mm 2 mps 741 mmHg 75%
    01:00 +10°C° 0 mm 2 mps 740 mmHg 75%
    02:00 +10°C° 0 mm 2 mps 740 mmHg 76%
    03:00 +10°C° 0 mm 2 mps 740 mmHg 76%
    04:00 +9°C° 0 mm 2 mps 740 mmHg 76%
    05:00 +10°C° 0 mm 2 mps 740 mmHg 73%
    06:00 +12°C° 0 mm 2 mps 740 mmHg 69%
    07:00 +14°C° 0 mm 2 mps 740 mmHg 65%
    08:00 +16°C° 0 mm 1 mps 740 mmHg 60%
    09:00 +19°C° 0 mm 1 mps 740 mmHg 54%
    10:00 +21°C° 0 mm 1 mps 740 mmHg 48%
    11:00 +20°C° 0 mm 2 mps 740 mmHg 48%
    12:00 +20°C° 0 mm 2 mps 739 mmHg 47%
    13:00 +21°C° 0 mm 2 mps 739 mmHg 47%
    14:00 +20°C° 0 mm 2 mps 739 mmHg 50%
    15:00 +19°C° 0 mm 2 mps 738 mmHg 53%
    16:00 +19°C° 0 mm 2 mps 738 mmHg 57%
    17:00 +18°C° 0 mm 1 mps 738 mmHg 67%
    18:00 +15°C° 0 mm 1 mps 738 mmHg 77%
    19:00 +13°C° 0 mm 1 mps 738 mmHg 87%
    20:00 +12°C° 0 mm 1 mps 739 mmHg 88%
    21:00 +12°C° 0 mm 1 mps 739 mmHg 89%
    22:00 +11°C° 0 mm 1 mps 739 mmHg 91%
    23:00 +11°C° 0 mm 1 mps 739 mmHg 91%

    2 April, Sunday

    Time Temperature Precipitation Wind Pressure Humidity
    00:00 +11°C° 0 mm 1 mps 739 mmHg 91%
    01:00 +10°C° 0 mm 1 mps 739 mmHg 92%
    02:00 +10°C° 0 mm 1 mps 739 mmHg 91%
    03:00 +10°C° 0 mm 1 mps 739 mmHg 91%
    04:00 +9°C° 0 mm 1 mps 739 mmHg 91%
    05:00 +11°C° 0 mm 1 mps 739 mmHg 84%
    06:00 +13°C° 0 mm 1 mps 740 mmHg 78%
    07:00 +14°C° 0 mm 1 mps 740 mmHg 71%
    08:00 +16°C° 0 mm 1 mps 740 mmHg 64%
    09:00 +19°C° 0 mm 1 mps 740 mmHg 57%
    10:00 +21°C° 0 mm 1 mps 740 mmHg 50%
    11:00 +21°C° 0.3 mm 1 mps 740 mmHg 50%
    12:00 +20°C° 0.3 mm 2 mps 740 mmHg 50%
    13:00 +20°C° 0.3 mm 2 mps 739 mmHg 50%
    14:00 +20°C° 0.4 mm 2 mps 739 mmHg 53%
    15:00 +19°C° 0.4 mm 2 mps 739 mmHg 56%
    16:00 +18°C° 0.4 mm 2 mps 739 mmHg 59%
    17:00 +16°C° 0.2 mm 2 mps 739 mmHg 68%
    18:00 +14°C° 0.2 mm 1 mps 739 mmHg 77%
    19:00 +12°C° 0.2 mm 1 mps 739 mmHg 86%
    20:00 +12°C° 0.1 mm 1 mps 739 mmHg 86%
    21:00 +11°C° 0.1 mm 1 mps 740 mmHg 87%
    22:00 +10°C° 0.1 mm 0 mps 740 mmHg 88%
    23:00 +10°C° 0 mm 1 mps 740 mmHg 86%

    3 April, Monday

    Time Temperature Precipitation Wind Pressure Humidity
    00:00 +10°C° 0 mm 1 mps 740 mmHg 85%
    01:00 +10°C° 0 mm 1 mps 740 mmHg 83%
    02:00 +10°C° 0 mm 1 mps 740 mmHg 79%
    03:00 +10°C° 0 mm 1 mps 739 mmHg 75%
    04:00 +9°C° 0 mm 2 mps 739 mmHg 71%
    05:00 +10°C° 0 mm 2 mps 739 mmHg 68%
    06:00 +10°C° 0 mm 2 mps 739 mmHg 65%
    07:00 +12°C° 0 mm 2 mps 739 mmHg 62%
    08:00 +14°C° 0 mm 2 mps 739 mmHg 54%
    09:00 +16°C° 0 mm 1 mps 739 mmHg 45%
    10:00 +20°C° 0 mm 1 mps 739 mmHg 37%
    11:00 +19°C° 0 mm 2 mps 739 mmHg 35%
    12:00 +20°C° 0 mm 2 mps 739 mmHg 33%
    13:00 +21°C° 0 mm 3 mps 738 mmHg 31%
    14:00 +21°C° 0 mm 3 mps 738 mmHg 32%
    15:00 +20°C° 0 mm 3 mps 737 mmHg 34%
    16:00 +20°C° 0 mm 3 mps 737 mmHg 36%
    17:00 +17°C° 0 mm 3 mps 737 mmHg 43%
    18:00 +14°C° 0 mm 3 mps 737 mmHg 51%
    19:00 +12°C° 0 mm 3 mps 737 mmHg 58%
    20:00 +12°C° 0 mm 3 mps 737 mmHg 58%
    21:00 +11°C° 0 mm 3 mps 737 mmHg 57%
    22:00 +11°C° 0 mm 3 mps 738 mmHg 57%
    23:00 +10°C° 0 mm 3 mps 737 mmHg 59%
    Show more